Regional Weather Roundup
Issued by NWS Little Rock, AR

Home | Current Version | Previous Version | Graphics & Text | Print | Product List | Glossary On
Versions: 1 2 3 4 5 6 7 8 9 10 11 12 13 14 15 16 17 18 19 20 21 22 23 24 25 26 27 28 29 30 31 32 33 34 35 36 37 38 39 40 41 42 43 44 45 46 47 48 49 50
000
ASUS44 KLZK 281905
RWRLZK

WEATHER ROUNDUP FOR ARKANSAS
NATIONAL WEATHER SERVICE LITTLE ROCK AR
200 PM CDT MON JUL 28 2014

NOTE: "FAIR" INDICATES FEW OR NO CLOUDS BELOW 12,000 FEET WITH NO
SIGNIFICANT WEATHER AND/OR OBSTRUCTIONS TO VISIBILITY.

ARZ001-003-010-029-282000-
NORTHWEST ARKANSAS

CITY           SKY/WX    TMP DP  RH WIND       PRES   REMARKS
FAYETTEVILLE   SUNNY     83  58  42 N6        30.18F
FORT SMITH     SUNNY     88  57  34 VRB3G17   30.13F HX  87
HARRISON       SUNNY     81  58  45 NW10      30.17F
BENTONVILLE    SUNNY     81  57  44 N6        30.21S
ROGERS         SUNNY     81  56  42 NW9G18    30.20F
SILOAM SPGS    SUNNY     81  57  44 N6        30.20F
HIGHFILL       SUNNY     83  59  44 VRB5G23   30.19F
SPRINGDALE     MOSUNNY   84  57  39 N10G18    30.20F
$$

ARZ004-005-016-282000-
NORTH CENTRAL ARKANSAS

CITY           SKY/WX    TMP DP  RH WIND       PRES   REMARKS
BATESVILLE     MOSUNNY   82  63  51 W7        30.10F
FLIPPIN        MOSUNNY   82  57  42 N7        30.14F
MTN HOME       PTSUNNY   82  60  47 VRB7      30.12F
$$

ARZ040-041-282000-
WEST CENTRAL ARKANSAS

CITY           SKY/WX    TMP DP  RH WIND       PRES   REMARKS
MENA           SUNNY     88  63  42 N8        30.15F HX  88
MOUNT IDA      SUNNY     86  63  45 VRB6      30.10F HX  87
$$

ARZ009-017-025-026-028-282000-
NORTHEAST ARKANSAS

CITY           SKY/WX    TMP DP  RH WIND       PRES   REMARKS
CORNING          N/A     82  63  51 NW8       30.08F
JONESBORO      SUNNY     81  62  52 NW7       30.07F
NEWPORT        SUNNY     84  63  49 N7        30.09F HX  85
WALNUT RIDGE   SUNNY     84  63  48 NW9G16    30.08F HX  85
BLYTHEVILLE    MOSUNNY   82  64  54 NW10G18   30.07F
$$

ARZ022-023-033-042-044-282000-
CENTRAL ARKANSAS

CITY           SKY/WX    TMP DP  RH WIND       PRES   REMARKS
LITTLE ROCK    MOSUNNY   87  60  40 N14       30.09F HX  87
N LITTLE ROCK  MOSUNNY   83  66  56 N9        30.09F HX  85
JACKSONVILLE   SUNNY     84  64  51 VRB5      30.10F HX  85
SEARCY         SUNNY     83  63  50 NW9       30.10F
HOT SPRINGS    SUNNY     85  63  47 W6        30.11F HX  86
RUSSELLVILLE   SUNNY     86  60  41 VRB7      30.11F HX  86
CLINTON        FAIR      84  63  48 NW10      30.12F HX  85
$$

ARZ036-282000-
EAST ARKANSAS

CITY           SKY/WX    TMP DP  RH WIND       PRES   REMARKS
WEST MEMPHIS   SUNNY     83  63  50 N12G20    30.05F
$$

ARZ050-053-066-070-073-282000-
SOUTHWEST ARKANSAS

CITY           SKY/WX    TMP DP  RH WIND       PRES   REMARKS
ARKADELPHIA    FAIR      88  66  47 VRB6      30.09F HX  90
CAMDEN         SUNNY     90  64  43 NW9       30.08F HX  91
TEXARKANA      SUNNY     90  64  42 N7        30.10F HX  91
EL DORADO      SUNNY     89  66  46 NW8       30.09F HX  91
DE QUEEN       MOSUNNY   90  69  50 VRB5      30.09F HX  94
$$

ARZ056-057-069-282000-
SOUTHEAST ARKANSAS

CITY           SKY/WX    TMP DP  RH WIND       PRES   REMARKS
PINE BLUFF     SUNNY     85  63  47 N12       30.08F HX  86
STUTTGART      SUNNY     84  64  51 N13       30.09F HX  86
MONTICELLO     SUNNY     88  64  44 VRB5      30.07F HX  89

$$





USA.gov is the U.S. government's official web portal to all federal, state and local government web resources and services.